| time (UTC) | temp C | wind direction | speed KPH | gust KPH | rain 1hr cm | rain 24hr cm | rain mn cm | humidity % | barometer mb |
| 20260506134559 | 14 | 182 | 1.6 | 12.9 | 0.13 | 0.18 | 0.18 | 93 | 1010.2 |
| 20260506133103 | 14 | 0 | 3.2 | 12.9 | 0.13 | 0.15 | 0.15 | 93 | 1010.1 |
| 20260506131600 | 14 | 154 | 3.2 | 14.5 | 0.10 | 0.13 | 0.13 | 92 | 1010.3 |
| 20260506130106 | 14 | 170 | 1.6 | 14.5 | 0.08 | 0.08 | 0.08 | 91 | 1010.4 |
| 20260506124600 | 15 | 187 | 1.6 | 12.9 | 0.05 | 0.05 | 0.05 | 90 | 1010.5 |
| 20260506123058 | 15 | 172 | 3.2 | 17.7 | 0.03 | 0.03 | 0.03 | 88 | 1010.4 |
| 20260506121626 | 15 | 189 | 4.8 | 14.5 | 0.03 | 0.03 | 0.03 | 86 | 1010.3 |
| 20260506120111 | 15 | 180 | 4.8 | 19.3 | 0.00 | 0.00 | 0.00 | 87 | 1010.1 |
| 20260506114619 | 15 | 175 | 4.8 | 12.9 | 0.00 | 0.00 | 0.00 | 87 | 1010.1 |
| 20260506113058 | 15 | 149 | 3.2 | 14.5 | 0.00 | 0.00 | 0.00 | 86 | 1010.0 |
| 20260506111557 | 15 | 205 | 1.6 | 14.5 | 0.00 | 0.00 | 0.00 | 83 | 1010.1 |
| 20260506110058 | 16 | 187 | 3.2 | 12.9 | 0.00 | 0.00 | 0.00 | 80 | 1010.1 |
| 20260506104600 | 16 | 261 | 4.8 | 16.1 | 0.00 | 0.00 | 0.00 | 77 | 1009.8 |
| 20260506103100 | 16 | 195 | 8.0 | 19.3 | 0.00 | 0.00 | 0.00 | 76 | 1009.7 |
| 20260506101557 | 16 | 139 | 3.2 | 11.3 | 0.00 | 0.00 | 0.00 | 76 | 1009.6 |
| 20260506100057 | 16 | 207 | 3.2 | 9.7 | 0.00 | 0.00 | 0.00 | 75 | 1009.5 |
| 20260506094600 | 16 | 171 | 0.0 | 3.2 | 0.00 | 0.00 | 0.00 | 74 | 1009.6 |
| 20260506093113 | 16 | 0 | 0.0 | 9.7 | 0.00 | 0.00 | 0.00 | 72 | 1009.8 |
| 20260506091558 | 16 | 187 | 1.6 | 9.7 | 0.00 | 0.00 | 0.00 | 71 | 1009.7 |
| 20260506090121 | 16 | 187 | 3.2 | 9.7 | 0.00 | 0.00 | 0.00 | 71 | 1009.7 |
| 20260506084558 | 16 | 161 | 1.6 | 9.7 | 0.00 | 0.08 | 0.00 | 70 | 1009.8 |
| 20260506083058 | 16 | 0 | 1.6 | 8.0 | 0.00 | 0.08 | 0.00 | 69 | 1009.8 |
| 20260506081557 | 16 | 178 | 3.2 | 9.7 | 0.00 | 0.08 | 0.00 | 67 | 1009.8 |
| 20260506080110 | 16 | 145 | 3.2 | 9.7 | 0.00 | 0.08 | 0.00 | 66 | 1009.8 |
| 20260506073111 | 17 | 186 | 1.6 | 12.9 | 0.00 | 0.36 | 0.00 | 65 | 1010.0 |
| 20260506071557 | 16 | 159 | 1.6 | 6.4 | 0.00 | 0.36 | 0.00 | 65 | 1010.1 |
| 20260506061604 | 17 | 184 | 3.2 | 14.5 | 0.00 | 0.36 | 0.00 | 61 | 1010.6 |
| 20260506050104 | 17 | 276 | 1.6 | 14.5 | 0.00 | 0.36 | 0.00 | 58 | 1011.1 |
| 20260506044611 | 17 | 305 | 1.6 | 16.1 | 0.00 | 0.36 | 0.00 | 60 | 1011.1 |
| 20260506043059 | 17 | 0 | 1.6 | 11.3 | 0.00 | 0.36 | 0.00 | 59 | 1011.2 |
| 20260506041610 | 17 | 180 | 1.6 | 14.5 | 0.00 | 0.36 | 0.00 | 58 | 1011.2 |
| 20260506040104 | 17 | 159 | 0.0 | 12.9 | 0.00 | 0.36 | 0.00 | 56 | 1011.2 |
| 20260506034602 | 17 | 139 | 0.0 | 4.8 | 0.00 | 0.36 | 0.36 | 55 | 1011.2 |
| 20260506033059 | 18 | 0 | 1.6 | 11.3 | 0.00 | 0.36 | 0.36 | 53 | 1011.1 |
| 20260506031600 | 18 | 164 | 0.0 | 8.0 | 0.00 | 0.36 | 0.36 | 50 | 1011.2 |
| 20260506024608 | 19 | 180 | 3.2 | 12.9 | 0.00 | 0.36 | 0.36 | 48 | 1011.2 |
| 20260506023102 | 20 | 176 | 3.2 | 11.3 | 0.00 | 0.36 | 0.36 | 46 | 1011.3 |
| 20260506021558 | 20 | 148 | 4.8 | 14.5 | 0.00 | 0.36 | 0.36 | 45 | 1011.2 |
| 20260506020123 | 21 | 182 | 3.2 | 20.9 | 0.00 | 0.36 | 0.36 | 44 | 1011.2 |
| 20260506014559 | 21 | 160 | 3.2 | 16.1 | 0.00 | 0.36 | 0.36 | 45 | 1011.0 |
| 20260506013057 | 21 | 0 | 4.8 | 19.3 | 0.00 | 0.36 | 0.36 | 45 | 1010.9 |
| 20260506011600 | 21 | 222 | 3.2 | 19.3 | 0.00 | 0.36 | 0.36 | 44 | 1010.6 |
| 20260506010104 | 21 | 156 | 6.4 | 20.9 | 0.00 | 0.36 | 0.36 | 44 | 1010.4 |
| 20260506004600 | 21 | 173 | 8.0 | 20.9 | 0.00 | 0.36 | 0.36 | 46 | 1010.2 |
| 20260506003058 | 21 | 225 | 6.4 | 20.9 | 0.00 | 0.36 | 0.36 | 47 | 1010.3 |
| 20260506001607 | 22 | 186 | 4.8 | 20.9 | 0.00 | 0.36 | 0.36 | 45 | 1010.2 |
| 20260506000123 | 22 | 201 | 4.8 | 16.1 | 0.00 | 0.36 | 0.36 | 46 | 1010.1 |
| 20260505234616 | 22 | 158 | 6.4 | 22.5 | 0.00 | 0.36 | 0.36 | 44 | 1009.9 |
| 20260505233100 | 22 | 199 | 3.2 | 32.2 | 0.00 | 0.36 | 0.36 | 43 | 1009.8 |
| 20260505231603 | 23 | 0 | 0.0 | 0.0 | 0.00 | 0.36 | 0.36 | 41 | 1009.7 |
| 20260505230100 | 23 | 0 | 0.0 | 0.0 | 0.00 | 0.36 | 0.36 | 40 | 1009.4 |
| 20260505224559 | 23 | 0 | 0.0 | 0.0 | 0.00 | 0.36 | 0.36 | 39 | 1009.6 |
| 20260505223105 | 23 | 0 | 0.0 | 29.0 | 0.00 | 0.36 | 0.36 | 37 | 1009.4 |
| 20260505221603 | 24 | 157 | 11.3 | 25.7 | 0.00 | 0.36 | 0.36 | 36 | 1009.3 |
| 20260505220108 | 24 | 213 | 6.4 | 24.1 | 0.00 | 0.36 | 0.36 | 36 | 1009.4 |
| 20260505214610 | 24 | 0 | 0.0 | 24.1 | 0.00 | 0.36 | 0.36 | 37 | 1009.1 |
| 20260505213058 | 23 | 180 | 6.4 | 19.3 | 0.00 | 0.36 | 0.36 | 38 | 1009.3 |
| 20260505211634 | 24 | 0 | 1.6 | 27.4 | 0.00 | 0.36 | 0.36 | 38 | 1009.1 |
| 20260505210059 | 24 | 193 | 9.7 | 29.0 | 0.00 | 0.36 | 0.36 | 39 | 1009.3 |
| 20260505204605 | 24 | 271 | 11.3 | 25.7 | 0.00 | 0.36 | 0.36 | 38 | 1009.2 |
| 20260505203100 | 25 | 168 | 6.4 | 37.0 | 0.00 | 0.36 | 0.36 | 38 | 1009.3 |
| 20260505201558 | 25 | 262 | 8.0 | 24.1 | 0.00 | 0.36 | 0.36 | 35 | 1009.4 |
| 20260505200058 | 25 | 185 | 4.8 | 27.4 | 0.00 | 0.36 | 0.36 | 40 | 1009.1 |
| 20260505194600 | 25 | 225 | 4.8 | 22.5 | 0.00 | 0.36 | 0.36 | 39 | 1009.3 |
| 20260505193058 | 25 | 237 | 8.0 | 35.4 | 0.00 | 0.36 | 0.36 | 37 | 1009.8 |
| 20260505191605 | 25 | 191 | 9.7 | 33.8 | 0.00 | 0.36 | 0.36 | 36 | 1009.6 |
| 20260505190114 | 25 | 203 | 9.7 | 27.4 | 0.00 | 0.36 | 0.36 | 37 | 1010.1 |
| 20260505184600 | 25 | 232 | 4.8 | 25.7 | 0.00 | 0.36 | 0.36 | 42 | 1010.3 |
| 20260505183058 | 25 | 217 | 9.7 | 24.1 | 0.00 | 0.36 | 0.36 | 37 | 1010.4 |
| 20260505181641 | 25 | 260 | 4.8 | 19.3 | 0.00 | 0.36 | 0.36 | 39 | 1010.5 |
| 20260505180105 | 25 | 260 | 9.7 | 22.5 | 0.00 | 0.36 | 0.36 | 40 | 1010.6 |
| 20260505174600 | 25 | 0 | 4.8 | 40.2 | 0.00 | 0.36 | 0.36 | 49 | 1010.7 |
| 20260505173059 | 25 | 210 | 1.6 | 24.1 | 0.00 | 0.36 | 0.36 | 40 | 1010.9 |
| 20260505171605 | 25 | 167 | 6.4 | 19.3 | 0.00 | 0.36 | 0.36 | 42 | 1011.0 |
| 20260505170059 | 25 | 151 | 8.0 | 25.7 | 0.00 | 0.36 | 0.36 | 46 | 1011.1 |
| 20260505164559 | 24 | 166 | 4.8 | 14.5 | 0.00 | 0.36 | 0.36 | 49 | 1011.2 |
| 20260505163100 | 23 | 250 | 1.6 | 8.0 | 0.00 | 0.36 | 0.36 | 48 | 1011.4 |
| 20260505161558 | 23 | 191 | 1.6 | 17.7 | 0.00 | 0.36 | 0.36 | 49 | 1011.7 |
| 20260505153100 | 22 | 327 | 4.8 | 14.5 | 0.00 | 0.36 | 0.36 | 51 | 1012.0 |
| 20260505151603 | 22 | 146 | 1.6 | 11.3 | 0.00 | 0.36 | 0.36 | 53 | 1012.0 |
| 20260505140109 | 19 | 207 | 4.8 | 16.1 | 0.00 | 0.36 | 0.36 | 64 | 1012.4 |